SCP
0 0 0 0 0 0 0 0 0 0 0 0 0 0 0 0 0 0 0 0 -0 -1 -0 -0 -0 -1 -1 -1 -1 -1 -1 -1 -1 -1 -1 -1 -1 -0 -0 -0 0 0 0 0 0 -0 -0 0 0
0 0 0 0 0 0 0 0 0 0 0 0 0 0 0 0 0 0 0 0 0 -0 -0 -0 -0 -0 -1 -1 -1 -1 -1 -1 -1 -1 -1 -1 -0 -0 -0 0 0 0 0 0 0 0 0 0 0
0 0 0 0 0 0 0 0 0 0 0 0 0 0 0 0 0 0 1 0 0 0 0 0 -0 -0 -0 -1 -1 -1 -1 -1 -1 -1 -0 -0 -0 -0 -0 0 0 0 0 0 0 0 -0 0 0
0 0 0 0 0 0 0 0 0 0 0 0 0 0 0 0 0 0 1 0 1 0 0 0 0 0 0 -0 -1 -1 -1 -1 -1 -0 -0 -0 -0 -0 0 0 0 0 -0 -0 -0 -0 -0 0 0
0 0 0 0 0 0 0 0 0 0 0 0 0 0 0 1 2 1 1 0 1 0 0 0 0 0 0 0 -0 -0 -0 -0 -0 -0 -0 -0 -0 -0 0 0 0 -0 -0 -0 -0 -0 -0 -0 0
0 0 0 0 0 0 0 0 0 0 0 0 0 0 0 2 2 1 1 0 1 1 1 1 0 0 0 0 -0 -0 -0 -0 -0 -0 -0 -0 -0 -0 0 -0 -0 -0 -0 -0 -0 -0 -0 -0 -0
0 0 0 0 0 0 0 0 0 0 0 0 0 0 0 2 2 1 1 1 1 1 1 1 1 0 1 0 0 0 0 0 0 0 0 0 0 0 0 0 0 -0 -0 -0 -0 -0 -0 -0 -0
0 0 0 0 0 0 0 0 0 0 0 0 0 0 0 1 1 1 1 1 1 1 1 1 1 0 1 1 1 0 0 0 0 0 0 0 0 0 0 0 0 0 0 0 -0 -0 -0 -0 -0
0 0 0 0 0 0 0 0 0 0 0 0 0 0 0 2 1 2 1 1 1 1 1 0 0 0 1 1 1 1 0 0 0 0 0 0 0 0 0 0 0 0 0 0 0 -0 -0 -0 -0
0 0 0 0 0 0 0 0 0 0 0 0 0 0 0 2 1 1 1 0 0 -0 -0 0 -0 0 0 0 0 1 1 1 1 1 1 1 0 0 0 0 0 0 0 0 0 0 0 0 0
0 0 0 0 0 0 0 0 0 0 0 0 0 0 0 0 1 1 1 0 -0 -0 0 0 0 0 1 0 1 1 1 1 1 1 1 0 0 0 0 0 1 0 0 0 0 0 0 0 0
0 0 0 0 0 0 0 0 0 0 0 0 0 0 0 0 0 1 1 0 1 1 0 0 0 0 0 1 1 1 1 1 1 1 1 1 0 0 0 0 0 0 0 0 0 0 0 0 0
0 0 0 0 0 0 0 0 0 0 0 0 0 -0 0 0 0 0 1 1 1 1 1 0 1 1 1 1 1 1 1 1 1 1 1 0 0 0 0 0 0 0 0 0 0 0 0 0 0
0 0 0 0 0 0 0 -0 0 0 0 0 0 0 0 0 0 0 0 0 0 0 0 1 1 1 1 1 1 1 1 1 1 1 1 0 1 0 0 0 0 0 0 0 0 0 0 0 0
0 0 0 0 0 0 0 0 0 0 0 0 -0 0 0 0 0 0 0 0 0 0 1 1 1 1 1 1 1 1 1 1 1 1 1 1 1 0 0 0 0 0 0 0 0 0 0 0 0
0 0 0 0 0 0 0 0 0 0 0 0 0 0 0 0 0 0 0 0 -0 0 0 1 1 1 0 0 1 1 1 1 1 1 1 1 1 1 0 0 0 1 0 0 0 0 0 0 0
0 0 0 0 0 0 0 0 0 -0 0 0 0 0 0 0 0 0 0 0 0 0 0 1 1 0 0 0 1 1 1 1 1 1 1 1 1 1 1 1 1 1 1 0 0 0 0 0 0
0 0 0 0 0 0 0 0 0 -0 0 0 0 0 0 0 -0 0 0 0 0 0 0 0 0 0 0 0 0 1 1 1 0 0 0 0 1 1 1 1 1 1 1 1 0 0 0 0 0
-0 -0 -0 0 0 0 0 0 0 0 0 0 0 0 0 0 0 0 0 0 0 0 0 0 0 0 0 0 0 0 0 0 1 1 0 0 0 0 0 1 1 1 1 1 1 1 0 0 0
-0 -0 -0 0 0 0 0 0 0 0 0 0 0 0 0 0 0 0 0 0 0 0 0 0 0 0 0 0 0 0 0 0 0 0 0 0 1 0 1 0 0 1 1 1 1 1 1 0 1
-0 0 0 0 0 0 0 0 0 0 0 0 0 0 0 0 0 0 0 0 0 0 0 0 0 0 0 0 0 0 0 0 0 0 0 0 0 0 0 0 0 0 1 1 1 1 1 1 1
-0 0 0 0 0 0 0 0 0 0 0 0 0 0 0 0 0 0 0 0 0 0 0 0 0 0 0 0 0 0 0 0 0 0 0 0 0 0 0 0 0 0 1 1 1 1 1 1 1
-0 0 0 0 0 0 0 0 0 0 0 0 0 0 0 0 0 0 0 0 0 0 0 0 0 0 0 0 0 0 0 0 0 0 0 0 0 0 0 0 0 0 0 0 1 1 1 1 1
0 0 0 0 0 0 0 0 0 0 0 0 0 0 0 0 0 0 0 0 0 0 0 0 0 0 0 0 0 0 0 0 0 0 0 0 0 0 0 0 0 0 0 0 0 1 1 1 1
0 0 0 0 0 0 0 0 0 0 0 0 0 0 0 0 0 0 0 0 0 0 0 0 0 0 0 0 0 0 0 0 0 0 0 0 0 0 0 0 0 0 0 0 0 0 0 0 1
0 0 0 0 0 0 0 0 0 0 0 0 0 0 0 0 0 0 0 0 0 0 0 0 0 0 0 0 0 0 0 0 0 0 0 0 0 0 0 0 0 0 0 0 0 0 0 0 0
0 0 0 0 0 0 0 0 0 0 0 0 0 0 0 0 0 0 0 0 0 0 0 0 0 0 0 0 0 0 0 0 0 0 0 0 0 0 0 0 0 0 0 0 0 0 0 0 0
0 0 0 0 0 0 0 0 0 0 0 0 0 0 0 0 0 0 0 0 0 0 0 0 0 0 0 0 0 0 0 0 0 0 0 0 0 0 0 0 0 0 0 0 0 0 0 0 0
0 0 0 0 0 0 0 0 0 0 0 0 0 0 0 0 0 0 0 0 0 0 0 0 0 0 0 0 0 0 0 0 0 0 0 0 0 0 0 0 0 0 0 0 0 0 0 0 0
0 0 0 0 0 0 0 0 0 0 0 0 0 0 0 0 0 0 0 0 0 0 0 0 0 0 0 0 0 0 0 0 0 0 0 0 0 0 0 0 0 0 0 0 0 0 0 0 0
Wind_Speed_500mb
24 20 19 10 6 9 7 11 4 11 7 4 35 7 12 6 6 9 13 50 53 60 63 62 58 53 48 43 41 40 38 35 32 31 30 26 23 28 32 32 30 29 27 25 25 25 24 22 22
23 18 9 4 7 2 10 8 12 10 14 42 34 8 3 5 4 3 32 46 51 61 65 63 59 53 48 43 40 39 37 35 34 31 28 25 27 32 34 32 31 30 27 25 25 24 22 20 20
24 15 4 7 8 12 9 10 12 5 38 22 13 7 3 2 3 28 36 36 45 62 64 61 58 52 48 42 40 39 38 36 33 30 27 26 32 35 36 34 33 29 26 26 25 23 20 19 19
19 9 4 7 14 11 11 13 12 16 19 13 30 11 3 6 11 17 45 26 54 59 60 58 56 51 46 43 41 41 39 34 30 28 27 29 35 38 38 35 32 28 25 25 25 22 19 18 17
24 10 4 4 14 8 10 21 22 20 22 23 19 8 1 9 12 15 38 26 54 57 57 55 55 51 46 42 41 41 38 33 28 27 28 34 38 40 39 36 32 28 24 24 24 22 21 19 19
9 8 4 14 12 8 8 29 20 18 31 6 6 4 3 7 11 22 25 26 52 51 53 54 53 50 45 42 40 40 37 32 29 29 29 33 38 40 40 37 32 27 24 24 23 23 22 22 21
14 8 11 11 9 22 7 17 8 16 13 14 12 4 5 15 33 34 29 40 55 52 53 55 55 52 47 43 42 41 38 34 30 28 30 33 36 38 38 36 32 28 26 24 23 23 23 23 22
12 8 11 11 11 22 5 8 24 26 4 8 16 4 10 34 35 33 33 42 48 50 52 54 54 54 52 48 46 44 42 39 35 31 29 31 35 36 36 35 32 29 26 25 24 24 24 24 24
12 4 8 13 15 9 8 10 13 30 17 4 6 23 17 36 37 37 39 45 45 48 52 54 56 56 55 52 48 47 44 42 39 37 34 33 35 37 38 36 35 32 30 28 27 26 26 26 27
9 8 17 15 8 9 20 9 18 16 31 10 15 27 8 38 42 40 42 44 46 50 53 55 58 59 57 56 53 51 49 47 46 43 41 39 36 35 36 37 36 35 34 33 32 31 30 30 31
5 7 10 6 22 30 17 27 8 9 8 21 6 24 11 33 46 48 45 42 35 41 49 52 55 55 55 56 55 53 52 51 48 46 44 42 40 40 39 38 38 38 38 38 37 37 37 37 36
4 14 13 12 39 46 9 31 12 23 34 35 34 24 32 22 45 50 48 47 48 46 48 52 53 55 57 57 57 54 53 49 48 47 46 46 45 45 44 44 42 42 42 43 42 43 44 45 45
8 14 17 42 50 54 51 54 18 30 54 39 22 47 28 26 25 46 42 42 46 45 47 45 47 49 52 57 57 55 53 50 48 46 46 46 46 47 47 47 49 48 47 46 49 49 50 52 53
15 42 47 50 42 29 17 25 32 46 51 35 40 53 38 31 27 26 30 30 36 37 38 46 50 51 52 54 56 55 52 48 46 44 44 44 46 48 46 47 51 52 54 52 52 54 56 59 60
17 11 5 31 51 17 27 18 38 51 51 24 33 60 53 48 49 38 25 31 36 35 32 37 47 53 55 55 55 52 48 44 41 42 42 42 43 42 44 50 49 52 55 58 59 61 61 65 65
7 9 7 18 15 29 28 25 20 56 48 34 26 39 58 71 65 55 46 29 28 25 29 36 47 53 58 58 56 51 42 32 34 41 36 35 39 40 44 50 52 49 52 56 59 61 65 68 72
7 8 13 17 24 11 27 13 19 59 36 55 64 66 63 51 60 57 73 51 28 17 25 33 38 36 43 47 49 39 31 28 22 25 33 35 38 39 42 49 53 53 54 56 55 60 60 65 67
7 7 8 10 5 19 20 22 27 52 42 64 60 68 64 57 70 67 76 45 30 23 23 26 25 23 26 31 34 32 31 28 24 22 26 31 33 31 35 39 41 43 49 56 61 62 61 66 71
6 6 10 10 12 13 19 13 22 32 38 27 55 55 78 75 84 83 54 41 34 31 32 29 33 33 26 28 32 29 26 21 16 16 18 22 27 31 35 37 39 43 49 55 58 64 67 68 67
12 7 14 17 4 9 15 20 19 10 22 40 56 56 51 47 61 46 36 36 39 43 45 45 42 40 36 33 31 26 19 12 10 11 16 22 26 30 34 37 42 45 47 48 51 57 65 72 67
13 12 9 12 5 4 5 10 9 10 8 15 13 18 25 37 40 38 41 44 52 53 51 45 39 36 33 25 18 12 10 13 16 21 25 31 34 38 41 45 50 52 54 58 57 59 64 70 70
13 13 11 9 6 7 3 7 7 6 6 5 7 13 23 29 32 39 43 43 46 49 47 41 34 26 19 11 7 8 11 15 21 24 28 31 37 41 45 46 49 45 45 52 58 58 60 61 70
17 9 6 3 8 5 9 7 11 5 4 1 7 7 27 42 48 50 52 50 48 42 35 29 22 15 9 5 9 16 20 25 28 32 36 38 39 42 43 47 47 49 52 53 51 51 53 58 67
11 12 15 8 5 3 5 10 11 4 2 4 3 17 33 42 47 47 45 42 36 30 22 16 14 19 16 9 13 17 20 24 31 34 40 42 45 47 52 54 54 53 54 54 53 50 53 59 63
11 12 4 4 5 9 7 5 15 4 8 10 17 39 47 52 51 45 38 33 29 26 20 20 21 19 17 22 27 31 33 37 42 47 53 58 62 62 61 58 57 58 62 62 58 57 53 57 66
7 10 11 12 8 8 5 7 10 9 16 16 42 49 48 51 42 36 30 26 24 24 26 26 25 26 27 29 31 35 39 42 46 51 58 64 68 71 72 71 69 67 64 63 65 63 61 60 65
7 4 7 13 5 5 5 8 10 8 9 23 33 40 35 30 27 22 20 22 25 24 21 21 23 23 25 30 34 35 39 44 49 54 59 64 69 73 76 75 77 76 74 71 70 67 64 62 62
6 11 7 6 10 7 7 5 8 6 12 11 11 10 9 11 14 19 19 21 21 19 16 12 13 19 27 34 41 48 56 64 72 78 82 86 89 88 87 85 84 82 79 76 73 71 64 61 63
3 3 11 10 8 9 4 10 9 14 11 15 12 9 12 18 21 21 22 20 14 6 5 13 23 33 42 50 58 67 75 82 87 90 90 88 85 84 86 89 91 89 88 81 74 72 66 65 64
2 6 8 7 10 4 7 10 8 16 12 22 23 33 32 31 30 23 14 5 5 12 21 29 38 47 56 64 72 79 84 84 84 80 75 71 71 68 67 67 71 76 83 87 80 75 70 69 68
Wind_Direction_500mb
258 283 313 325 33 61 268 257 245 268 277 319 320 296 277 66 187 207 178 167 170 173 169 171 170 171 171 173 176 175 176 173 169 167 167 168 171 166 161 159 155 150 147 147 145 142 140 136 132
246 268 299 127 104 73 267 241 244 209 285 324 322 268 346 331 290 179 152 166 174 173 170 172 172 172 172 175 177 176 176 174 171 170 173 178 177 169 164 162 160 156 152 151 151 150 148 145 141
230 245 230 134 156 192 228 220 262 332 313 299 296 316 330 273 193 151 160 168 174 175 171 172 172 173 172 175 178 176 175 175 176 179 183 184 176 171 169 168 166 162 160 159 160 162 159 156 155
189 187 115 117 225 240 217 278 325 343 343 260 310 281 221 184 134 152 167 165 173 178 173 174 174 175 175 176 180 176 174 176 181 185 185 181 177 175 175 174 173 171 170 169 171 173 170 168 170
167 157 117 192 248 238 243 258 320 322 281 273 289 260 212 159 174 159 172 182 179 179 177 179 176 178 179 179 180 179 177 179 183 185 184 181 180 180 181 181 180 180 180 180 182 182 182 181 186
137 141 126 220 248 243 241 272 313 293 289 356 59 307 232 243 175 157 167 181 181 183 182 182 179 182 184 183 183 185 184 184 186 184 185 184 184 185 186 186 187 188 190 192 193 194 194 196 198
140 108 204 195 235 266 234 285 259 274 333 17 353 339 268 151 148 148 164 178 182 188 187 186 184 184 189 190 190 192 192 191 191 189 187 188 190 192 193 195 197 199 200 203 206 208 209 209 211
187 122 176 208 192 253 324 299 311 271 230 3 16 273 260 165 160 161 169 179 187 192 192 190 188 189 195 195 196 198 199 198 198 198 195 195 197 201 204 207 209 213 215 217 219 220 223 223 223
172 98 205 198 185 253 298 10 335 321 253 23 298 342 272 186 175 176 175 182 191 197 199 196 194 196 200 202 201 203 205 206 205 204 204 204 205 208 212 216 220 223 225 226 228 231 234 236 238
162 168 203 193 194 221 259 276 332 342 326 308 325 7 200 191 189 192 187 183 187 195 201 202 202 202 203 206 206 206 208 209 212 213 214 214 215 218 221 224 228 230 232 234 236 238 241 242 245
190 212 175 240 209 239 255 272 277 275 274 254 297 0 339 212 205 204 201 199 193 192 200 205 208 209 211 213 213 213 214 215 217 219 222 224 225 227 231 233 235 239 242 242 243 243 245 248 250
236 227 209 223 241 256 258 271 205 243 257 200 208 272 326 246 230 222 219 213 208 207 205 207 209 213 214 217 220 221 223 226 228 229 230 232 235 238 241 243 246 247 247 249 249 252 252 253 254
229 238 234 235 240 247 252 251 260 242 258 244 251 259 271 280 239 239 241 235 225 221 220 217 216 219 220 223 223 225 228 233 238 240 241 243 247 247 251 254 254 256 259 264 268 267 266 264 263
214 232 243 248 251 249 245 271 257 247 256 234 242 237 261 287 268 224 209 213 223 225 223 225 226 226 225 227 229 229 232 238 247 252 255 254 256 255 259 264 263 263 265 270 271 274 275 276 274
252 247 224 237 241 241 249 268 245 248 252 248 251 237 259 265 291 269 235 223 224 225 221 222 226 228 228 230 235 233 237 244 255 260 262 263 264 264 265 266 270 271 271 271 273 273 276 276 277
222 146 221 256 195 240 191 253 255 253 222 218 193 235 271 267 286 272 281 247 216 217 222 224 228 230 228 226 231 236 240 255 266 264 262 264 270 274 275 278 280 280 274 274 275 279 279 279 279
251 221 221 302 183 176 185 232 251 260 230 215 230 221 216 249 257 261 271 261 236 224 201 219 229 233 230 228 230 234 240 259 259 257 260 268 277 280 281 280 282 286 288 287 285 284 284 284 284
232 243 241 229 306 188 185 221 221 252 214 207 196 213 204 213 226 237 250 234 229 218 197 195 202 209 207 213 219 233 243 263 259 259 260 259 263 272 278 281 284 285 287 287 289 290 290 291 290
239 261 278 254 215 138 218 222 224 230 204 194 195 206 205 225 228 236 224 227 215 196 188 185 188 197 200 200 213 226 237 235 251 265 264 272 284 289 287 288 286 284 280 281 283 287 288 287 290
240 267 271 276 275 154 152 232 252 235 210 198 205 216 229 222 216 211 201 201 202 201 196 191 192 192 195 199 196 195 203 220 254 278 287 289 289 289 289 290 291 291 290 288 285 287 289 289 286
226 194 238 248 341 103 66 321 334 229 152 156 176 176 186 192 188 193 190 190 190 192 191 191 187 184 179 176 175 197 244 270 281 284 286 290 293 294 293 291 290 291 291 291 289 287 284 285 287
252 196 218 261 144 210 56 260 310 347 108 83 147 155 175 178 189 188 185 179 178 173 173 177 173 169 166 171 215 261 286 297 304 304 305 301 300 301 301 300 298 299 302 298 295 292 288 282 280
229 154 150 97 108 88 333 77 250 326 112 318 346 140 174 179 177 163 154 149 148 142 144 145 145 143 120 40 339 336 329 322 315 306 305 305 303 302 300 299 295 294 298 301 300 301 300 292 281
151 75 52 50 71 77 224 126 298 269 204 178 112 154 166 157 147 142 142 146 146 145 142 144 161 181 195 220 250 258 266 277 284 287 286 285 283 284 287 290 292 290 289 292 294 302 303 299 293
76 85 17 353 7 216 340 66 234 287 304 216 153 153 151 149 147 149 152 157 163 166 176 195 206 218 231 248 256 262 267 272 274 274 274 274 276 274 273 270 269 274 281 285 287 290 298 306 299
153 155 151 192 191 230 3 225 250 288 275 208 159 153 154 155 155 160 169 177 183 192 208 221 237 249 258 261 266 270 272 275 278 278 277 276 276 274 273 270 266 264 263 268 275 279 285 295 301
188 124 160 104 32 77 229 272 322 30 61 133 152 158 160 165 170 175 188 197 206 218 227 230 235 244 257 267 271 278 284 287 288 287 285 283 280 278 275 274 271 266 263 262 265 269 274 283 292
146 152 74 14 140 220 282 270 231 173 163 151 65 77 136 169 173 172 169 170 175 176 185 207 245 270 279 287 291 291 292 293 292 290 287 284 281 277 274 272 270 270 267 263 260 262 265 273 282
68 95 59 105 124 156 174 255 225 209 158 135 144 126 151 145 149 143 139 138 142 159 263 288 294 298 300 301 300 299 298 298 298 297 296 294 291 288 283 280 275 269 265 264 262 259 259 266 275
17 160 130 145 216 213 155 258 335 147 146 140 138 140 141 144 141 134 128 103 329 312 308 305 304 304 304 303 302 303 304 303 302 300 300 299 300 298 295 292 290 284 273 264 260 262 258 261 266
Wind_Speed_850mb
24 20 19 10 6 9 7 11 4 11 7 4 35 7 12 6 6 9 13 50 53 60 63 62 58 53 48 43 41 40 38 35 32 31 30 26 23 28 32 32 30 29 27 25 25 25 24 22 22
23 18 9 4 7 2 10 8 12 10 14 42 34 8 3 5 4 3 32 46 51 61 65 63 59 53 48 43 40 39 37 35 34 31 28 25 27 32 34 32 31 30 27 25 25 24 22 20 20
24 15 4 7 8 12 9 10 12 5 38 22 13 7 3 2 3 28 36 36 45 62 64 61 58 52 48 42 40 39 38 36 33 30 27 26 32 35 36 34 33 29 26 26 25 23 20 19 19
19 9 4 7 14 11 11 13 12 16 19 13 30 11 3 6 11 17 45 26 54 59 60 58 56 51 46 43 41 41 39 34 30 28 27 29 35 38 38 35 32 28 25 25 25 22 19 18 17
24 10 4 4 14 8 10 21 22 20 22 23 19 8 1 9 12 15 38 26 54 57 57 55 55 51 46 42 41 41 38 33 28 27 28 34 38 40 39 36 32 28 24 24 24 22 21 19 19
9 8 4 14 12 8 8 29 20 18 31 6 6 4 3 7 11 22 25 26 52 51 53 54 53 50 45 42 40 40 37 32 29 29 29 33 38 40 40 37 32 27 24 24 23 23 22 22 21
14 8 11 11 9 22 7 17 8 16 13 14 12 4 5 15 33 34 29 40 55 52 53 55 55 52 47 43 42 41 38 34 30 28 30 33 36 38 38 36 32 28 26 24 23 23 23 23 22
12 8 11 11 11 22 5 8 24 26 4 8 16 4 10 34 35 33 33 42 48 50 52 54 54 54 52 48 46 44 42 39 35 31 29 31 35 36 36 35 32 29 26 25 24 24 24 24 24
12 4 8 13 15 9 8 10 13 30 17 4 6 23 17 36 37 37 39 45 45 48 52 54 56 56 55 52 48 47 44 42 39 37 34 33 35 37 38 36 35 32 30 28 27 26 26 26 27
9 8 17 15 8 9 20 9 18 16 31 10 15 27 8 38 42 40 42 44 46 50 53 55 58 59 57 56 53 51 49 47 46 43 41 39 36 35 36 37 36 35 34 33 32 31 30 30 31
5 7 10 6 22 30 17 27 8 9 8 21 6 24 11 33 46 48 45 42 35 41 49 52 55 55 55 56 55 53 52 51 48 46 44 42 40 40 39 38 38 38 38 38 37 37 37 37 36
4 14 13 12 39 46 9 31 12 23 34 35 34 24 32 22 45 50 48 47 48 46 48 52 53 55 57 57 57 54 53 49 48 47 46 46 45 45 44 44 42 42 42 43 42 43 44 45 45
8 14 17 42 50 54 51 54 18 30 54 39 22 47 28 26 25 46 42 42 46 45 47 45 47 49 52 57 57 55 53 50 48 46 46 46 46 47 47 47 49 48 47 46 49 49 50 52 53
15 42 47 50 42 29 17 25 32 46 51 35 40 53 38 31 27 26 30 30 36 37 38 46 50 51 52 54 56 55 52 48 46 44 44 44 46 48 46 47 51 52 54 52 52 54 56 59 60
17 11 5 31 51 17 27 18 38 51 51 24 33 60 53 48 49 38 25 31 36 35 32 37 47 53 55 55 55 52 48 44 41 42 42 42 43 42 44 50 49 52 55 58 59 61 61 65 65
7 9 7 18 15 29 28 25 20 56 48 34 26 39 58 71 65 55 46 29 28 25 29 36 47 53 58 58 56 51 42 32 34 41 36 35 39 40 44 50 52 49 52 56 59 61 65 68 72
7 8 13 17 24 11 27 13 19 59 36 55 64 66 63 51 60 57 73 51 28 17 25 33 38 36 43 47 49 39 31 28 22 25 33 35 38 39 42 49 53 53 54 56 55 60 60 65 67
7 7 8 10 5 19 20 22 27 52 42 64 60 68 64 57 70 67 76 45 30 23 23 26 25 23 26 31 34 32 31 28 24 22 26 31 33 31 35 39 41 43 49 56 61 62 61 66 71
6 6 10 10 12 13 19 13 22 32 38 27 55 55 78 75 84 83 54 41 34 31 32 29 33 33 26 28 32 29 26 21 16 16 18 22 27 31 35 37 39 43 49 55 58 64 67 68 67
12 7 14 17 4 9 15 20 19 10 22 40 56 56 51 47 61 46 36 36 39 43 45 45 42 40 36 33 31 26 19 12 10 11 16 22 26 30 34 37 42 45 47 48 51 57 65 72 67
13 12 9 12 5 4 5 10 9 10 8 15 13 18 25 37 40 38 41 44 52 53 51 45 39 36 33 25 18 12 10 13 16 21 25 31 34 38 41 45 50 52 54 58 57 59 64 70 70
13 13 11 9 6 7 3 7 7 6 6 5 7 13 23 29 32 39 43 43 46 49 47 41 34 26 19 11 7 8 11 15 21 24 28 31 37 41 45 46 49 45 45 52 58 58 60 61 70
17 9 6 3 8 5 9 7 11 5 4 1 7 7 27 42 48 50 52 50 48 42 35 29 22 15 9 5 9 16 20 25 28 32 36 38 39 42 43 47 47 49 52 53 51 51 53 58 67
11 12 15 8 5 3 5 10 11 4 2 4 3 17 33 42 47 47 45 42 36 30 22 16 14 19 16 9 13 17 20 24 31 34 40 42 45 47 52 54 54 53 54 54 53 50 53 59 63
11 12 4 4 5 9 7 5 15 4 8 10 17 39 47 52 51 45 38 33 29 26 20 20 21 19 17 22 27 31 33 37 42 47 53 58 62 62 61 58 57 58 62 62 58 57 53 57 66
7 10 11 12 8 8 5 7 10 9 16 16 42 49 48 51 42 36 30 26 24 24 26 26 25 26 27 29 31 35 39 42 46 51 58 64 68 71 72 71 69 67 64 63 65 63 61 60 65
7 4 7 13 5 5 5 8 10 8 9 23 33 40 35 30 27 22 20 22 25 24 21 21 23 23 25 30 34 35 39 44 49 54 59 64 69 73 76 75 77 76 74 71 70 67 64 62 62
6 11 7 6 10 7 7 5 8 6 12 11 11 10 9 11 14 19 19 21 21 19 16 12 13 19 27 34 41 48 56 64 72 78 82 86 89 88 87 85 84 82 79 76 73 71 64 61 63
3 3 11 10 8 9 4 10 9 14 11 15 12 9 12 18 21 21 22 20 14 6 5 13 23 33 42 50 58 67 75 82 87 90 90 88 85 84 86 89 91 89 88 81 74 72 66 65 64
2 6 8 7 10 4 7 10 8 16 12 22 23 33 32 31 30 23 14 5 5 12 21 29 38 47 56 64 72 79 84 84 84 80 75 71 71 68 67 67 71 76 83 87 80 75 70 69 68
Wind_Direction_850mb
258 283 313 325 33 61 268 257 245 268 277 319 320 296 277 66 187 207 178 167 170 173 169 171 170 171 171 173 176 175 176 173 169 167 167 168 171 166 161 159 155 150 147 147 145 142 140 136 132
246 268 299 127 104 73 267 241 244 209 285 324 322 268 346 331 290 179 152 166 174 173 170 172 172 172 172 175 177 176 176 174 171 170 173 178 177 169 164 162 160 156 152 151 151 150 148 145 141
230 245 230 134 156 192 228 220 262 332 313 299 296 316 330 273 193 151 160 168 174 175 171 172 172 173 172 175 178 176 175 175 176 179 183 184 176 171 169 168 166 162 160 159 160 162 159 156 155
189 187 115 117 225 240 217 278 325 343 343 260 310 281 221 184 134 152 167 165 173 178 173 174 174 175 175 176 180 176 174 176 181 185 185 181 177 175 175 174 173 171 170 169 171 173 170 168 170
167 157 117 192 248 238 243 258 320 322 281 273 289 260 212 159 174 159 172 182 179 179 177 179 176 178 179 179 180 179 177 179 183 185 184 181 180 180 181 181 180 180 180 180 182 182 182 181 186
137 141 126 220 248 243 241 272 313 293 289 356 59 307 232 243 175 157 167 181 181 183 182 182 179 182 184 183 183 185 184 184 186 184 185 184 184 185 186 186 187 188 190 192 193 194 194 196 198
140 108 204 195 235 266 234 285 259 274 333 17 353 339 268 151 148 148 164 178 182 188 187 186 184 184 189 190 190 192 192 191 191 189 187 188 190 192 193 195 197 199 200 203 206 208 209 209 211
187 122 176 208 192 253 324 299 311 271 230 3 16 273 260 165 160 161 169 179 187 192 192 190 188 189 195 195 196 198 199 198 198 198 195 195 197 201 204 207 209 213 215 217 219 220 223 223 223
172 98 205 198 185 253 298 10 335 321 253 23 298 342 272 186 175 176 175 182 191 197 199 196 194 196 200 202 201 203 205 206 205 204 204 204 205 208 212 216 220 223 225 226 228 231 234 236 238
162 168 203 193 194 221 259 276 332 342 326 308 325 7 200 191 189 192 187 183 187 195 201 202 202 202 203 206 206 206 208 209 212 213 214 214 215 218 221 224 228 230 232 234 236 238 241 242 245
190 212 175 240 209 239 255 272 277 275 274 254 297 0 339 212 205 204 201 199 193 192 200 205 208 209 211 213 213 213 214 215 217 219 222 224 225 227 231 233 235 239 242 242 243 243 245 248 250
236 227 209 223 241 256 258 271 205 243 257 200 208 272 326 246 230 222 219 213 208 207 205 207 209 213 214 217 220 221 223 226 228 229 230 232 235 238 241 243 246 247 247 249 249 252 252 253 254
229 238 234 235 240 247 252 251 260 242 258 244 251 259 271 280 239 239 241 235 225 221 220 217 216 219 220 223 223 225 228 233 238 240 241 243 247 247 251 254 254 256 259 264 268 267 266 264 263
214 232 243 248 251 249 245 271 257 247 256 234 242 237 261 287 268 224 209 213 223 225 223 225 226 226 225 227 229 229 232 238 247 252 255 254 256 255 259 264 263 263 265 270 271 274 275 276 274
252 247 224 237 241 241 249 268 245 248 252 248 251 237 259 265 291 269 235 223 224 225 221 222 226 228 228 230 235 233 237 244 255 260 262 263 264 264 265 266 270 271 271 271 273 273 276 276 277
222 146 221 256 195 240 191 253 255 253 222 218 193 235 271 267 286 272 281 247 216 217 222 224 228 230 228 226 231 236 240 255 266 264 262 264 270 274 275 278 280 280 274 274 275 279 279 279 279
251 221 221 302 183 176 185 232 251 260 230 215 230 221 216 249 257 261 271 261 236 224 201 219 229 233 230 228 230 234 240 259 259 257 260 268 277 280 281 280 282 286 288 287 285 284 284 284 284
232 243 241 229 306 188 185 221 221 252 214 207 196 213 204 213 226 237 250 234 229 218 197 195 202 209 207 213 219 233 243 263 259 259 260 259 263 272 278 281 284 285 287 287 289 290 290 291 290
239 261 278 254 215 138 218 222 224 230 204 194 195 206 205 225 228 236 224 227 215 196 188 185 188 197 200 200 213 226 237 235 251 265 264 272 284 289 287 288 286 284 280 281 283 287 288 287 290
240 267 271 276 275 154 152 232 252 235 210 198 205 216 229 222 216 211 201 201 202 201 196 191 192 192 195 199 196 195 203 220 254 278 287 289 289 289 289 290 291 291 290 288 285 287 289 289 286
226 194 238 248 341 103 66 321 334 229 152 156 176 176 186 192 188 193 190 190 190 192 191 191 187 184 179 176 175 197 244 270 281 284 286 290 293 294 293 291 290 291 291 291 289 287 284 285 287
252 196 218 261 144 210 56 260 310 347 108 83 147 155 175 178 189 188 185 179 178 173 173 177 173 169 166 171 215 261 286 297 304 304 305 301 300 301 301 300 298 299 302 298 295 292 288 282 280
229 154 150 97 108 88 333 77 250 326 112 318 346 140 174 179 177 163 154 149 148 142 144 145 145 143 120 40 339 336 329 322 315 306 305 305 303 302 300 299 295 294 298 301 300 301 300 292 281
151 75 52 50 71 77 224 126 298 269 204 178 112 154 166 157 147 142 142 146 146 145 142 144 161 181 195 220 250 258 266 277 284 287 286 285 283 284 287 290 292 290 289 292 294 302 303 299 293
76 85 17 353 7 216 340 66 234 287 304 216 153 153 151 149 147 149 152 157 163 166 176 195 206 218 231 248 256 262 267 272 274 274 274 274 276 274 273 270 269 274 281 285 287 290 298 306 299
153 155 151 192 191 230 3 225 250 288 275 208 159 153 154 155 155 160 169 177 183 192 208 221 237 249 258 261 266 270 272 275 278 278 277 276 276 274 273 270 266 264 263 268 275 279 285 295 301
188 124 160 104 32 77 229 272 322 30 61 133 152 158 160 165 170 175 188 197 206 218 227 230 235 244 257 267 271 278 284 287 288 287 285 283 280 278 275 274 271 266 263 262 265 269 274 283 292
146 152 74 14 140 220 282 270 231 173 163 151 65 77 136 169 173 172 169 170 175 176 185 207 245 270 279 287 291 291 292 293 292 290 287 284 281 277 274 272 270 270 267 263 260 262 265 273 282
68 95 59 105 124 156 174 255 225 209 158 135 144 126 151 145 149 143 139 138 142 159 263 288 294 298 300 301 300 299 298 298 298 297 296 294 291 288 283 280 275 269 265 264 262 259 259 266 275
17 160 130 145 216 213 155 258 335 147 146 140 138 140 141 144 141 134 128 103 329 312 308 305 304 304 304 303 302 303 304 303 302 300 300 299 300 298 295 292 290 284 273 264 260 262 258 261 266